This demonstration page uses our WeatherBlox Daily Observations layout. Learn more.

Left ArrowRight Arrow

Hourly Observations for March 1, 2016

Temp ( °F °C ) Dew Point ( °F °C ) Humidity (%) Winds ( mph kmh ) Pressure ( in mb ) Visibility ( mi km ) Precip ( " mm )
12:51 am 00:51 Clear 56 13.3 24 -4.4 29 29 NW 7 11 29.99 1016 10 16 N/A
1:51 am 01:51 Clear 55 12.8 23 -5 29 29 NNE 7 11 30.00 1016 10 16 N/A
2:51 am 02:51 Clear 48 8.9 23 -5 37 37 SSE 5 7 30.01 1016 10 16 N/A
3:51 am 03:51 Clear 47 8.3 23 -5 39 39 SE 7 11 30.01 1016 10 16 N/A
4:51 am 04:51 Clear 44 6.7 23 -5 43 43 S 3 6 30.03 1017 10 16 N/A
5:51 am 05:51 Clear 43 6.1 23 -5 45 45 S 3 6 30.05 1018 10 16 N/A
6:51 am 06:51 Sunny 42 5.6 23 -5 47 47 SSW 3 6 30.07 1018 10 16 N/A
7:51 am 07:51 Sunny 47 8.3 24 -4.4 41 41 SE 3 6 30.09 1019 10 16 N/A
8:51 am 08:51 Sunny 56 13.3 25 -3.9 30 30 NNE 3 6 30.11 1020 10 16 N/A
9:51 am 09:51 Sunny 63 17.2 26 -3.3 25 25 NW 3 6 30.10 1019 10 16 N/A
10:51 am 10:51 Sunny 66 18.9 27 -2.8 23 23 VRB 3 6 30.10 1019 10 16 N/A
11:51 am 11:51 Sunny 72 22.2 28 -2.2 19 19 VRB 3 6 30.07 1018 10 16 N/A
12:51 pm 12:51 Sunny 74 23.3 27 -2.8 17 17 W 7 11 30.04 1017 10 16 N/A
1:51 pm 13:51 Sunny 78 25.6 25 -3.9 14 14 N N/A 29.98 1015 10 16 N/A
2:51 pm 14:51 Sunny 81 27.2 26 -3.3 13 13 NW 7 11 29.96 1015 10 16 N/A
3:51 pm 15:51 Sunny 81 27.2 25 -3.9 13 13 W 12 19 29.96 1015 10 16 N/A
4:51 pm 16:51 Sunny 80 26.7 25 -3.9 13 13 W 6 9 29.96 1015 10 16 N/A
5:51 pm 17:51 Sunny 77 25 24 -4.4 14 14 NW 9 15 29.98 1015 10 16 N/A
6:51 pm 18:51 Clear 69 20.6 23 -5 17 17 NW 8 13 30.01 1016 10 16 N/A
7:51 pm 19:51 Clear 68 20 20 -6.7 16 16 NNW 9 15 30.01 1016 10 16 N/A
8:51 pm 20:51 Clear 64 17.8 22 -5.6 20 20 NW 10 17 30.01 1016 10 16 N/A
9:51 pm 21:51 Clear 61 16.1 23 -5 23 23 NW 9 15 30.02 1017 10 16 N/A
10:51 pm 22:51 Clear 58 14.4 23 -5 26 26 NNW 10 17 30.02 1017 10 16 N/A
11:51 pm 23:51 Clear 62 16.7 25 -3.9 24 24 NW 9 15 30.00 1016 10 16 N/A

Powered by AerisWeather